Location: Dodgeville
(42.9600°N, 90.1300°W)
Time: 12:11:34
(UTC-06:00)

Amateur Radio Satellites - All Passes

Search period start: 20 January 2017 11:41
Search period end: 21 January 2017 11:41
Location: Dodgeville, 42.9600°N, 90.1300°W

Satellite Date Start Highest point End Downlink Frequencies (MHz)
Time Altitude Azimuth
Oscar 19 20 Jan 11:41:48 11:46:13 29° 66° (ENE) 11:50:41 437.125/150
CUBEBUG 1 20 Jan 11:47:17 11:51:35 65° 101° (E) 11:55:52 437.445
DUCHIFAT 1 20 Jan 11:49:53 11:53:21 25° 265° (W) 11:56:51 145.980
Gurwin Techsat 1B 20 Jan 11:55:35 11:59:35 22° 63° (ENE) 12:03:35 435.225
NANOSAT C BR1 20 Jan 11:55:46 11:58:55 21° 266° (W) 12:02:05 145.865
AISAT 20 Jan 12:03:22 12:07:44 62° 101° (ESE) 12:12:03 437.250
Cosmos 2491 20 Jan 12:04:45 12:12:38 35° 69° (ENE) 12:20:29 435.465 / 435.565
AO-7 20 Jan 12:11:32 12:15:33 14° 43° (NE) 12:19:33 29.400- 29.500
50 SAT 20 Jan 12:15:12 12:18:45 64° 101° (ESE) 12:22:15 437.505
YUBILEINY 20 Jan 12:16:51 12:21:06 15° 74° (ENE) 12:25:21 435.215
BUGSAT 1 20 Jan 12:24:48 12:28:17 27° 264° (W) 12:31:47 437.445
ESTCUBE 1 20 Jan 12:25:31 12:29:31 31° 292° (WNW) 12:33:29 437.505/2401.250
CUSAT 1 20 Jan 12:36:31 12:42:55 26° 63° (ENE) 12:49:04 437.405
VELOX 1 20 Jan 12:36:48 12:41:10 61° 286° (WNW) 12:45:28 145.980
TISAT 1 20 Jan 12:59:00 13:02:29 25° 95° (E) 13:05:57 437.305
SPROUT 20 Jan 13:06:19 13:10:14 37° 290° (WNW) 13:14:09 437.525
UKube-1 20 Jan 13:08:19 13:12:39 79° 284° (WNW) 13:16:56 .
DX 1 20 Jan 13:09:10 13:13:26 56° 287° (WNW) 13:17:40 434.975-435.025
Oscar 19 20 Jan 13:20:37 13:25:24 37° 263° (W) 13:30:13 437.125/150
DANDE 20 Jan 13:25:16 13:31:11 23° 65° (ENE) 13:37:28 436.750
CUBEBUG 1 20 Jan 13:25:18 13:27:19 13° 299° (WNW) 13:29:20 437.445
AO-85 20 Jan 13:29:21 13:33:52 45° 119° (ESE) 13:38:05 145.980
Cosmos 2504 20 Jan 13:30:08 13:36:40 25° 82° (E) 13:42:55 435.465 / 435.565
AIST 1 20 Jan 13:31:23 13:35:35 47° 93° (E) 13:39:47
Gurwin Techsat 1B 20 Jan 13:33:59 13:39:09 53° 260° (W) 13:44:21 435.225
BEESAT 20 Jan 13:38:24 13:41:01 14° 90° (E) 13:43:37 436.000
SWISSCUBE 20 Jan 13:39:39 13:42:45 17° 92° (E) 13:45:50 437.505
AISAT 20 Jan 13:41:23 13:43:41 14° 298° (WNW) 13:45:58 437.250
AO-7 20 Jan 13:58:26 14:06:32 57° 64° (ENE) 14:14:40 29.400- 29.500
Cosmos 2491 20 Jan 14:01:21 14:09:48 54° 270° (W) 14:18:16 435.465 / 435.565
ITAMSAT 1 20 Jan 14:02:55 14:08:00 63° 72° (ENE) 14:13:08 435.822/435.867
YUBILEINY 20 Jan 14:07:29 14:16:15 75° 95° (E) 14:25:06 435.215
CUSAT 1 20 Jan 14:17:39 14:25:40 77° 263° (W) 14:33:05 437.405
TISAT 1 20 Jan 14:34:30 14:38:05 28° 292° (WNW) 14:41:39 437.305
SO-50 20 Jan 14:37:42 14:39:45 13° 33° (NNE) 14:41:47 436.795
ITUPSAT 1 20 Jan 14:39:47 14:44:33 58° 101° (E) 14:49:17 437.325
DANDE 20 Jan 15:06:51 15:14:39 86° 262° (W) 15:23:03 436.750
MOZHAYETS 4 20 Jan 15:09:42 15:14:03 38° 97° (E) 15:18:22
AO-85 20 Jan 15:10:41 15:14:27 24° 315° (NW) 15:18:00 145.980
AIST 1 20 Jan 15:10:47 15:13:27 16° 291° (WNW) 15:16:08
BEESAT 20 Jan 15:14:28 15:19:13 63° 287° (WNW) 15:23:57 436.000
SWISSCUBE 20 Jan 15:16:09 15:20:51 55° 288° (WNW) 15:25:32 437.505
BRITE-PL 20 Jan 15:16:19 15:21:16 32° 67° (ENE) 15:26:10 437.365/2234.400
Cosmos 2504 20 Jan 15:20:38 15:29:20 72° 280° (W) 15:37:30 435.465 / 435.565
GOMX 1 20 Jan 15:22:23 15:25:20 15° 62° (ENE) 15:28:14 467.674
O/OREOS (USA 219) 20 Jan 15:26:47 15:31:01 39° 61° (ENE) 15:35:15 437.305
AUBIESAT-1 20 Jan 15:38:20 15:40:09 14° 98° (E) 15:41:57 437.475
ITAMSAT 1 20 Jan 15:44:43 15:47:54 16° 269° (W) 15:51:07 435.822/435.867
KKS-1 20 Jan 15:49:14 15:53:08 30° 96° (E) 15:57:01 437.445
AO-7 20 Jan 15:52:12 15:59:36 34° 263° (W) 16:07:05 29.400- 29.500
CUBESAT XI-V 20 Jan 15:56:20 15:59:39 19° 92° (E) 16:02:55 437.345
HORYU 2 20 Jan 15:57:53 16:01:45 31° 68° (ENE) 16:05:39 437.375
Cubesat XI-IV 20 Jan 15:59:14 16:02:13 15° 59° (ENE) 16:05:13 437.490
DOVE 4 20 Jan 16:01:47 16:04:03 13° 62° (ENE) 16:06:16 437.250
CUSAT 1 20 Jan 16:01:55 16:06:15 16° 282° (WNW) 16:10:28 437.405
NOAA 18 20 Jan 16:06:18 16:07:33 11° 54° (NE) 16:08:48 137.9125
YUBILEINY 20 Jan 16:06:59 16:13:58 26° 296° (WNW) 16:21:01 435.215
NOAA 15 20 Jan 16:07:06 16:10:45 19° 61° (ENE) 16:14:24 137.62
SO-50 20 Jan 16:16:35 16:21:06 67° 54° (NE) 16:25:32 436.795
ITUPSAT 1 20 Jan 16:18:46 16:21:56 18° 298° (WNW) 16:25:03 437.325
BEESAT 3 20 Jan 16:20:31 16:24:24 84° 122° (ESE) 16:28:21 437.485
M-CUBED/EXP-1 PRIME 20 Jan 16:34:52 16:38:15 76° 290° (WNW) 16:41:30 437.505
LilacSat-2 20 Jan 16:40:32 16:43:43 27° 69° (ENE) 16:46:56 437.200
STARS 20 Jan 16:41:54 16:46:10 49° 100° (E) 16:50:24 437.465
MOZHAYETS 4 20 Jan 16:47:19 16:50:59 24° 294° (WNW) 16:54:39
DANDE 20 Jan 16:51:20 16:56:31 19° 278° (W) 17:01:56 436.750
CUTE-I 20 Jan 16:53:24 16:58:24 44° 69° (ENE) 17:03:26 437.470
BRITE-PL 20 Jan 16:54:14 16:59:34 40° 264° (W) 17:04:51 437.365/2234.400
GOMX 1 20 Jan 16:57:24 17:02:49 80° 258° (WSW) 17:08:01 467.674
BEESAT 2 20 Jan 17:05:30 17:09:26 76° 303° (WNW) 17:13:28 435.950
O/OREOS (USA 219) 20 Jan 17:06:46 17:10:09 21° 258° (WSW) 17:13:33 437.305
AUBIESAT-1 20 Jan 17:11:43 17:14:44 31° 295° (WNW) 17:17:41 437.475
Cosmos 2504 20 Jan 17:19:36 17:24:10 15° 301° (WNW) 17:28:36 435.465 / 435.565
HO-68 20 Jan 17:20:33 17:26:10 26° 57° (ENE) 17:31:48 435.675
KKS-1 20 Jan 17:25:53 17:29:36 27° 293° (WNW) 17:33:18 437.445
CINEMA 3 20 Jan 17:28:19 17:31:32 20° 67° (ENE) 17:34:40 145.822/145.860
CUBESAT XI-V 20 Jan 17:32:45 17:37:15 46° 289° (WNW) 17:41:43 437.345
HORYU 2 20 Jan 17:34:40 17:38:19 25° 265° (W) 17:41:59 437.375
DOVE 4 20 Jan 17:36:10 17:41:11 79° 259° (WSW) 17:45:56 437.250
Cubesat XI-IV 20 Jan 17:36:17 17:41:36 80° 256° (WSW) 17:46:58 437.490
CANX-2 20 Jan 17:39:00 17:41:46 17° 64° (ENE) 17:44:33 2200.000
NOAA 18 20 Jan 17:41:45 17:47:12 69° 73° (ENE) 17:52:41 137.9125
NOAA 15 20 Jan 17:44:46 17:50:00 63° 258° (WSW) 17:55:18 137.62
Cosmos 2499 20 Jan 17:45:29 17:49:34 15° 77° (ENE) 17:53:30 435.465 / 435.565
SEEDS 20 Jan 17:50:33 17:52:34 13° 62° (ENE) 17:54:36 437.485
COMPASS 1 20 Jan 17:57:32 17:57:45 10° 60° (ENE) 17:57:58 437.405
SO-50 20 Jan 17:58:39 18:00:59 14° 251° (WSW) 18:03:20 436.795
BEESAT 3 20 Jan 18:00:33 18:02:34 13° 322° (NW) 18:04:36 437.485
AAUSAT CUBESAT 2 20 Jan 18:08:24 18:08:50 10° 61° (ENE) 18:09:16 437.432
LilacSat-2 20 Jan 18:15:03 18:17:59 21° 266° (W) 18:20:57 437.200
STARS 20 Jan 18:19:18 18:22:07 17° 297° (WNW) 18:24:55 437.465
CUBEBUG 2 20 Jan 18:22:12 18:24:57 17° 65° (ENE) 18:27:42 437.445
CUTE-I 20 Jan 18:34:20 18:38:37 25° 266° (W) 18:42:56 437.470
CUTE 1.7 + AOD 2 20 Jan 18:43:40 18:47:53 71° 75° (ENE) 18:52:09 437.475
BEESAT 2 20 Jan 18:46:29 18:47:57 12° 324° (NW) 18:49:24 435.950
FUNcube-1 20 Jan 18:46:45 18:48:02 11° 61° (ENE) 18:49:19 145.935
UWE-3 20 Jan 18:49:40 18:52:49 21° 67° (ENE) 18:55:59 435.000/436.395/437.385
GONETS M04 20 Jan 18:55:49 19:03:36 39° 85° (E) 19:11:26
CINEMA 3 20 Jan 19:04:19 19:08:27 38° 262° (W) 19:12:28 145.822/145.860
AIST 2 20 Jan 19:05:14 19:09:05 40° 117° (ESE) 19:13:00 435.215
HO-68 20 Jan 19:06:05 19:13:16 70° 256° (WSW) 19:20:28 435.675
ZACube-1 20 Jan 19:07:57 19:11:01 21° 66° (ENE) 19:14:07 437.345
CANX-2 20 Jan 19:13:10 19:17:15 46° 261° (W) 19:21:23 2200.000
STRAND 1 20 Jan 19:22:32 19:27:40 69° 102° (ESE) 19:32:48 437.568
SEEDS 20 Jan 19:23:34 19:27:44 62° 260° (W) 19:31:58 437.485
NOAA 18 20 Jan 19:24:57 19:28:21 17° 269° (W) 19:31:47 137.9125
COMPASS 1 20 Jan 19:28:25 19:32:36 83° 254° (WSW) 19:36:51 437.405
Cosmos 2499 20 Jan 19:33:04 19:41:30 79° 95° (E) 19:49:20 435.465 / 435.565
AAUSAT CUBESAT 2 20 Jan 19:39:27 19:43:37 82° 258° (WSW) 19:47:51 437.432
Oscar 11 20 Jan 19:42:41 19:46:44 42° 71° (ENE) 19:50:50 145.826/435.025
CUBEBUG 2 20 Jan 19:57:20 20:01:16 41° 262° (W) 20:05:13 437.445
FUNcube-1 20 Jan 20:19:35 20:23:41 70° 258° (WSW) 20:27:51 145.935
CUTE 1.7 + AOD 2 20 Jan 20:23:29 20:24:12 10° 272° (W) 20:24:56 437.475
UWE-3 20 Jan 20:25:22 20:29:06 32° 264° (W) 20:32:52 435.000/436.395/437.385
ZACube-1 20 Jan 20:43:20 20:47:06 34° 263° (W) 20:50:55 437.345
AIST 2 20 Jan 20:44:18 20:47:42 24° 316° (NW) 20:51:08 435.215
HUMSAT D 20 Jan 20:51:03 20:54:55 43° 72° (ENE) 20:58:51 437.325/437.525
GONETS M04 20 Jan 20:51:52 21:00:11 49° 286° (WNW) 21:08:38
DELFI C3 20 Jan 20:53:52 20:57:52 88° 82° (E) 21:01:56 145.870
HO-68 20 Jan 21:00:00 21:02:12 11° 274° (W) 21:04:24 435.675
PRISM 20 Jan 21:02:27 21:06:20 39° 99° (E) 21:10:10 437.425
STRAND 1 20 Jan 21:03:05 21:06:17 17° 300° (WNW) 21:09:29 437.568
RS-15 20 Jan 21:08:45 21:13:29 13° 92° (E) 21:18:16 29.354- 29.394
Oscar 11 20 Jan 21:20:06 21:23:03 18° 268° (W) 21:26:03 145.826/435.025
Cosmos 2499 20 Jan 21:29:15 21:35:24 22° 295° (WNW) 21:41:17 435.465 / 435.565
UNISAT 6 20 Jan 21:32:10 21:36:00 28° 96° (E) 21:39:54 437.425
TIGRISAT 20 Jan 21:45:13 21:49:18 35° 98° (E) 21:53:27 435.000
BY70-1 20 Jan 21:46:01 21:48:51 38° 72° (ENE) 21:51:54 436.1900
ESTCUBE 1 20 Jan 21:49:10 21:53:00 28° 67° (ENE) 21:56:52 437.505/2401.250
AO-85 20 Jan 21:59:58 22:03:46 45° 51° (NE) 22:07:31 145.980
ANTELSAT 20 Jan 22:00:22 22:04:44 55° 100° (E) 22:09:11 437.575/2403.000
VELOX 1 20 Jan 22:00:32 22:02:55 14° 62° (ENE) 22:05:18 145.980
ISS 20 Jan 22:17:53 22:21:08 74° 143° (SE) 22:24:23 145.825
JAS-2 20 Jan 22:25:43 22:32:32 42° 97° (E) 22:39:48 435.910
SPROUT 20 Jan 22:25:44 22:28:35 18° 65° (ENE) 22:31:27 437.525
HUMSAT D 20 Jan 22:28:12 22:30:45 16° 269° (W) 22:33:20 437.325/437.525
DX 1 20 Jan 22:31:17 22:33:43 15° 62° (ENE) 22:36:08 434.975-435.025
UKube-1 20 Jan 22:31:19 22:32:10 10° 59° (ENE) 22:33:01 .
PRISM 20 Jan 22:38:29 22:41:20 18° 295° (WNW) 22:44:10 437.425
CUBEBUG 1 20 Jan 22:43:36 22:47:57 60° 74° (ENE) 22:52:17 437.445
50 SAT 20 Jan 22:50:43 22:53:50 28° 70° (ENE) 22:56:57 437.505
QB50P1 20 Jan 22:55:27 22:58:39 21° 94° (E) 23:01:50 145.935-145.965
POLYITAN 1 20 Jan 22:59:35 23:02:59 23° 95° (E) 23:06:23 437.675
QB50P2 20 Jan 23:00:45 23:04:18 25° 95° (E) 23:07:49 145.880/145.840
AISAT 20 Jan 23:01:05 23:05:29 61° 73° (ENE) 23:09:52 437.250
BEESAT 3 20 Jan 23:01:27 23:02:06 10° 35° (NE) 23:02:45 437.485
UNISAT 6 20 Jan 23:08:50 23:12:40 29° 292° (WNW) 23:16:32 437.425
PCSat 20 Jan 23:09:03 23:11:37 14° 103° (ESE) 23:14:10 145.827
RS-15 20 Jan 23:11:38 23:23:11 63° 114° (ESE) 23:35:13 29.354- 29.394
BY70-1 20 Jan 23:19:12 23:19:27 10° 271° (W) 23:19:42 436.1900
POPSAT HIP 1 20 Jan 23:21:50 23:25:48 39° 98° (E) 23:29:46 437.405
TIGRISAT 20 Jan 23:22:19 23:25:48 23° 293° (WNW) 23:29:21 435.000
ESTCUBE 1 20 Jan 23:25:45 23:29:43 30° 264° (W) 23:33:44 437.505/2401.250
DUCHIFAT 1 20 Jan 23:32:03 23:36:04 43° 99° (E) 23:40:05 145.980
VELOX 1 20 Jan 23:34:27 23:38:51 63° 258° (WSW) 23:43:17 145.980
NANOSAT C BR1 20 Jan 23:37:45 23:41:54 56° 100° (E) 23:46:03 145.865
ANTELSAT 20 Jan 23:38:19 23:41:02 16° 296° (WNW) 23:43:46 437.575/2403.000
AIST 1 20 Jan 23:38:51 23:40:56 13° 68° (ENE) 23:43:03
AO-85 20 Jan 23:41:21 23:43:47 16° 249° (WSW) 23:46:12 145.980
BEESAT 2 20 Jan 23:46:11 23:48:02 13° 37° (NE) 23:49:51 435.950
TISAT 1 20 Jan 23:51:38 23:54:51 22° 66° (ENE) 23:58:04 437.305
ISS 20 Jan 23:55:08 23:57:53 24° 343° (NNW) 00:00:38 145.825
SPROUT 21 Jan 00:00:07 00:04:11 44° 261° (W) 00:08:15 437.525
UKube-1 21 Jan 00:03:11 00:07:31 85° 258° (WSW) 00:11:52 .
BUGSAT 1 21 Jan 00:04:55 00:08:38 35° 98° (E) 00:12:22 437.445
DX 1 21 Jan 00:05:05 00:09:24 59° 258° (WSW) 00:13:45 434.975-435.025
JAS-2 21 Jan 00:10:50 00:17:29 43° 293° (WNW) 00:24:37 435.910
YUBILEINY 21 Jan 00:16:54 00:25:03 39° 71° (ENE) 00:33:05 435.215
CUBEBUG 1 21 Jan 00:22:28 00:24:36 13° 270° (W) 00:26:44 437.445
50 SAT 21 Jan 00:24:34 00:27:04 18° 266° (W) 00:29:35 437.505
QB50P1 21 Jan 00:30:40 00:34:30 35° 290° (WNW) 00:38:19 145.935-145.965
POLYITAN 1 21 Jan 00:35:03 00:38:48 31° 291° (WNW) 00:42:33 437.675
QB50P2 21 Jan 00:36:25 00:40:03 29° 292° (WNW) 00:43:42 145.880/145.840
BEESAT 3 21 Jan 00:36:32 00:40:32 63° 55° (NE) 00:44:29 437.485
AISAT 21 Jan 00:40:12 00:42:19 13° 270° (W) 00:44:27 437.250
BEESAT 21 Jan 00:45:27 00:48:50 20° 63° (ENE) 00:52:15 436.000
SWISSCUBE 21 Jan 00:46:49 00:50:28 23° 64° (ENE) 00:54:09 437.505
PCSat 21 Jan 00:48:48 00:54:13 85° 300° (WNW) 00:59:41 145.827
POPSAT HIP 1 21 Jan 00:58:17 01:01:19 19° 295° (WNW) 01:04:20 437.405
Cosmos 2491 21 Jan 01:07:25 01:15:11 38° 85° (E) 01:22:59 435.465 / 435.565
DUCHIFAT 1 21 Jan 01:08:38 01:11:24 17° 296° (WNW) 01:14:12 145.980
Cosmos 2504 21 Jan 01:12:57 01:19:57 42° 73° (ENE) 01:26:39 435.465 / 435.565
AIST 1 21 Jan 01:14:45 01:18:55 54° 266° (W) 01:23:04
NANOSAT C BR1 21 Jan 01:14:55 01:17:10 14° 297° (WNW) 01:19:25 145.865
BEESAT 2 21 Jan 01:22:24 01:26:28 83° 57° (ENE) 01:30:30 435.950
RS-15 21 Jan 01:24:44 01:36:15 48° 320° (NW) 01:48:10 29.354- 29.394
TISAT 1 21 Jan 01:26:31 01:30:18 33° 263° (W) 01:34:05 437.305
PHONESAT 2.4 21 Jan 01:29:20 01:30:44 15° 158° (SSE) 01:32:08 2401.200-2431.200
Oscar 19 21 Jan 01:30:41 01:35:52 73° 103° (ESE) 01:41:00 437.125/150
ISS 21 Jan 01:32:50 01:35:09 18° 3° (N) 01:37:27 145.825
CUSAT 1 21 Jan 01:40:47 01:43:51 15° 77° (ENE) 01:47:17 437.405
BUGSAT 1 21 Jan 01:40:52 01:43:46 19° 294° (WNW) 01:46:42 437.445
ITUPSAT 1 21 Jan 01:47:10 01:51:54 75° 75° (ENE) 01:56:42 437.325
M-CUBED/EXP-1 PRIME 21 Jan 01:48:24 01:51:01 16° 60° (ENE) 01:53:30 437.505
Gurwin Techsat 1B 21 Jan 01:49:03 01:54:18 58° 101° (E) 01:59:31 435.225
AO-7 21 Jan 02:01:16 02:05:41 15° 88° (E) 02:10:05 29.400- 29.500
MOZHAYETS 4 21 Jan 02:12:15 02:16:31 40° 70° (ENE) 02:20:48
YUBILEINY 21 Jan 02:13:39 02:21:59 49° 272° (W) 02:30:15 435.215
ITAMSAT 1 21 Jan 02:15:36 02:19:27 21° 93° (E) 02:23:18 435.822/435.867
BEESAT 3 21 Jan 02:15:56 02:17:37 12° 251° (WSW) 02:19:17 437.485
BEESAT 21 Jan 02:21:39 02:26:15 49° 260° (W) 02:30:53 436.000
AUBIESAT-1 21 Jan 02:23:26 02:27:02 28° 65° (ENE) 02:30:27 437.475
SWISSCUBE 21 Jan 02:23:29 02:28:00 42° 262° (W) 02:32:32 437.505
PCSat 21 Jan 02:34:56 02:38:27 17° 321° (NW) 02:41:59 145.827
KKS-1 21 Jan 02:48:00 02:51:55 31° 68° (ENE) 02:55:52 437.445
CUBESAT XI-V 21 Jan 03:00:27 03:03:58 21° 65° (ENE) 03:07:31 437.345
PHONESAT 2.4 21 Jan 03:02:15 03:04:24 38° 173° (S) 03:06:32 2401.200-2431.200
Cosmos 2491 21 Jan 03:03:28 03:11:47 49° 286° (WNW) 03:20:12 435.465 / 435.565
Cosmos 2504 21 Jan 03:06:37 03:13:08 35° 274° (W) 03:19:29 435.465 / 435.565
ISS 21 Jan 03:09:17 03:12:19 34° 23° (NNE) 03:15:19 145.825
Oscar 19 21 Jan 03:11:30 03:14:34 16° 300° (WNW) 03:17:39 437.125/150
CUSAT 1 21 Jan 03:19:16 03:24:27 79° 282° (WNW) 03:31:16 437.405
M-CUBED/EXP-1 PRIME 21 Jan 03:20:51 03:25:08 54° 254° (WSW) 03:29:10 437.505
AIST 2 21 Jan 03:25:28 03:29:26 37° 49° (NE) 03:33:23 435.215
ITUPSAT 1 21 Jan 03:28:26 03:30:16 12° 271° (W) 03:32:07 437.325
Gurwin Techsat 1B 21 Jan 03:29:58 03:33:49 21° 298° (WNW) 03:37:38 435.225
STARS 21 Jan 03:39:04 03:43:18 49° 72° (ENE) 03:47:31 437.465
RS-15 21 Jan 03:43:01 03:52:53 27° 352° (N) 04:02:48 29.354- 29.394
MOZHAYETS 4 21 Jan 03:50:21 03:53:49 21° 267° (W) 03:57:19
AO-7 21 Jan 03:51:19 03:59:45 77° 107° (ESE) 04:08:05 29.400- 29.500
ITAMSAT 1 21 Jan 03:54:09 03:59:12 51° 290° (WNW) 04:04:14 435.822/435.867
AUBIESAT-1 21 Jan 03:57:45 04:01:22 27° 258° (WSW) 04:04:49 437.475
DANDE 21 Jan 04:17:06 04:20:58 77° 281° (W) 04:26:18 436.750
KKS-1 21 Jan 04:24:48 04:28:29 25° 265° (W) 04:32:12 437.445
PHONESAT 2.4 21 Jan 04:36:06 04:38:11 33° 190° (S) 04:40:17 2401.200-2431.200
CUBESAT XI-V 21 Jan 04:36:34 04:41:03 44° 262° (W) 04:45:34 437.345
ISS 21 Jan 04:45:47 04:48:48 36° 221° (SW) 04:51:49 145.825
BRITE-PL 21 Jan 04:58:34 05:03:29 70° 102° (ESE) 05:07:57 437.365/2234.400
GOMX 1 21 Jan 04:59:27 05:03:09 26° 94° (E) 05:06:41 467.674
STRAND 1 21 Jan 05:03:05 05:05:50 15° 59° (ENE) 05:08:36 437.568
AIST 2 21 Jan 05:04:18 05:07:44 24° 247° (WSW) 05:11:09 435.215
GONETS M04 21 Jan 05:04:54 05:11:05 20° 61° (ENE) 05:17:15
CUSAT 1 21 Jan 05:05:00 05:07:58 14° 306° (NW) 05:11:13 437.405
CUTE-I 21 Jan 05:10:35 05:13:49 16° 90° (E) 05:17:03 437.470
STARS 21 Jan 05:17:14 05:19:54 16° 268° (W) 05:22:36 437.465
HORYU 2 21 Jan 05:23:30 05:27:53 54° 101° (E) 05:32:16 437.375
Cosmos 2499 21 Jan 05:24:14 05:30:04 26° 67° (ENE) 05:35:48 435.465 / 435.565
DOVE 4 21 Jan 05:34:55 05:38:15 23° 94° (E) 05:41:33 437.250
O/OREOS (USA 219) 21 Jan 05:40:01 05:44:08 37° 106° (ESE) 05:48:16 437.305
AO-7 21 Jan 05:45:05 05:51:42 27° 307° (NW) 05:58:20 29.400- 29.500
LilacSat-2 21 Jan 05:46:25 05:50:01 35° 97° (E) 05:53:34 437.200
Cubesat XI-IV 21 Jan 05:52:44 05:57:42 38° 98° (E) 06:02:39 437.490
NOAA 15 21 Jan 05:59:00 06:04:07 46° 99° (E) 06:09:10 137.62
RS-15 21 Jan 05:59:31 06:10:31 34° 27° (NNE) 06:21:16 29.354- 29.394
NOAA 18 21 Jan 06:03:24 06:07:56 26° 95° (E) 06:12:26 137.9125
PHONESAT 2.4 21 Jan 06:11:10 06:11:46 11° 205° (SSW) 06:12:23 2401.200-2431.200
CUTE 1.7 + AOD 2 21 Jan 06:29:45 06:31:18 12° 89° (E) 06:32:50 437.475
SO-50 21 Jan 06:32:54 06:36:00 18° 110° (ESE) 06:39:04 436.795
HO-68 21 Jan 06:33:51 06:39:12 22° 91° (E) 06:44:29 435.675
GOMX 1 21 Jan 06:37:27 06:41:15 28° 292° (WNW) 06:44:52 467.674
BRITE-PL 21 Jan 06:38:41 06:41:15 14° 301° (WNW) 06:43:42 437.365/2234.400
STRAND 1 21 Jan 06:39:16 06:44:21 78° 257° (WSW) 06:49:29 437.568
CUTE-I 21 Jan 06:49:02 06:54:21 68° 287° (WNW) 06:59:38 437.470
CANX-2 21 Jan 06:57:21 07:01:04 28° 95° (E) 07:04:45 2200.000
CINEMA 3 21 Jan 06:57:22 07:01:21 41° 98° (E) 07:05:25 145.822/145.860
GONETS M04 21 Jan 07:00:20 07:09:14 89° 81° (E) 07:18:06
HORYU 2 21 Jan 07:01:14 07:04:01 16° 297° (WNW) 07:06:47 437.375
SEEDS 21 Jan 07:07:07 07:10:19 20° 93° (E) 07:13:29 437.485
COMPASS 1 21 Jan 07:11:34 07:14:00 15° 91° (E) 07:16:23 437.405
DOVE 4 21 Jan 07:12:21 07:16:00 29° 291° (WNW) 07:19:36 437.250
Cosmos 2499 21 Jan 07:16:42 07:23:39 57° 268° (W) 07:30:30 435.465 / 435.565
O/OREOS (USA 219) 21 Jan 07:20:03 07:23:39 23° 304° (NW) 07:27:15 437.305
LilacSat-2 21 Jan 07:21:23 07:24:02 18° 294° (WNW) 07:26:42 437.200
AAUSAT CUBESAT 2 21 Jan 07:22:03 07:24:25 15° 91° (E) 07:26:47 437.432
Cubesat XI-IV 21 Jan 07:33:04 07:37:38 30° 295° (WNW) 07:42:11 437.490
NOAA 15 21 Jan 07:39:20 07:43:36 25° 297° (WNW) 07:47:52 137.62
NOAA 18 21 Jan 07:43:36 07:48:45 44° 292° (WNW) 07:53:53 137.9125
CUBEBUG 2 21 Jan 07:46:32 07:50:32 34° 97° (E) 07:54:37 437.445
PRISM 21 Jan 07:52:25 07:56:08 32° 69° (ENE) 07:59:53 437.425
PCSat 21 Jan 07:53:26 07:57:09 18° 40° (NE) 08:00:51 145.827
CUTE 1.7 + AOD 2 21 Jan 08:03:16 08:07:33 64° 285° (WNW) 08:11:46 437.475
FUNcube-1 21 Jan 08:06:53 08:10:13 21° 93° (E) 08:13:35 145.935
SO-50 21 Jan 08:11:22 08:16:02 60° 307° (NW) 08:20:39 436.795
RS-15 21 Jan 08:12:42 08:25:10 83° 55° (NE) 08:37:09 29.354- 29.394
UWE-3 21 Jan 08:13:04 08:17:14 42° 98° (E) 08:21:30 435.000/436.395/437.385
HO-68 21 Jan 08:20:22 08:27:32 72° 290° (WNW) 08:34:39 435.675
ZACube-1 21 Jan 08:29:53 08:34:01 39° 98° (E) 08:38:13 437.345
UNISAT 6 21 Jan 08:32:09 08:35:42 26° 68° (ENE) 08:39:17 437.425
DELFI C3 21 Jan 08:32:59 08:33:39 10° 89° (E) 08:34:19 145.870
CUTE-I 21 Jan 08:33:02 08:33:24 10° 305° (NW) 08:33:45 437.470
CANX-2 21 Jan 08:33:12 08:36:51 27° 292° (WNW) 08:40:28 2200.000
CINEMA 3 21 Jan 08:35:22 08:38:13 18° 294° (WNW) 08:41:07 145.822/145.860
JAS-2 21 Jan 08:42:02 08:45:24 17° 56° (NE) 08:48:57 435.910
SEEDS 21 Jan 08:42:12 08:46:06 36° 289° (WNW) 08:49:58 437.485
TIGRISAT 21 Jan 08:44:54 08:48:43 33° 70° (ENE) 08:52:33 435.000
COMPASS 1 21 Jan 08:45:44 08:49:48 48° 287° (WNW) 08:53:50 437.405
AAUSAT CUBESAT 2 21 Jan 08:56:06 09:00:09 48° 287° (WNW) 09:04:09 437.432
GONETS M04 21 Jan 08:59:07 09:04:48 19° 283° (WNW) 09:10:29
ANTELSAT 21 Jan 09:00:01 09:04:08 51° 73° (ENE) 09:08:17 437.575/2403.000
Oscar 11 21 Jan 09:04:33 09:08:56 78° 101° (E) 09:13:18 145.826/435.025
CUBEBUG 2 21 Jan 09:23:34 09:26:59 23° 293° (WNW) 09:30:28 437.445
PRISM 21 Jan 09:28:13 09:31:28 22° 265° (W) 09:34:44 437.425
PCSat 21 Jan 09:35:50 09:41:19 89° 237° (WSW) 09:46:44 145.827
FUNcube-1 21 Jan 09:42:29 09:46:33 38° 289° (WNW) 09:50:41 145.935
QB50P1 21 Jan 09:49:07 09:51:59 18° 65° (ENE) 09:54:51 145.935-145.965
UWE-3 21 Jan 09:50:17 09:53:25 19° 294° (WNW) 09:56:35 435.000/436.395/437.385
POLYITAN 1 21 Jan 09:53:20 09:56:25 20° 66° (ENE) 09:59:30 437.675
QB50P2 21 Jan 09:54:26 09:57:40 22° 66° (ENE) 10:00:55 145.880/145.840
SO-50 21 Jan 09:55:31 09:57:27 12° 327° (NNW) 09:59:23 436.795
DELFI C3 21 Jan 10:04:54 10:08:52 62° 286° (WNW) 10:12:47 145.870
ZACube-1 21 Jan 10:06:46 10:10:03 21° 294° (WNW) 10:13:23 437.345
HUMSAT D 21 Jan 10:08:23 10:12:42 75° 102° (ESE) 10:16:59 437.325/437.525
UNISAT 6 21 Jan 10:08:42 10:12:21 27° 265° (W) 10:16:01 437.425
HO-68 21 Jan 10:10:08 10:14:02 16° 310° (NW) 10:17:57 435.675
POPSAT HIP 1 21 Jan 10:15:05 10:18:50 32° 69° (ENE) 10:22:35 437.405
BY70-1 21 Jan 10:20:15 10:22:39 19° 94° (E) 10:24:57 436.1900
TIGRISAT 21 Jan 10:22:12 10:25:28 22° 266° (W) 10:28:47 435.000
JAS-2 21 Jan 10:24:18 10:29:37 77° 256° (WSW) 10:35:34 435.910
DUCHIFAT 1 21 Jan 10:24:35 10:28:23 35° 70° (ENE) 10:32:12 145.980
RS-15 21 Jan 10:26:31 10:36:16 30° 258° (WSW) 10:45:46 29.354- 29.394
NANOSAT C BR1 21 Jan 10:30:27 10:34:25 45° 72° (ENE) 10:38:26 145.865
ANTELSAT 21 Jan 10:38:54 10:41:10 14° 269° (W) 10:43:27 437.575/2403.000
Oscar 11 21 Jan 10:43:01 10:44:26 11° 299° (WNW) 10:45:51 145.826/435.025
AISAT 21 Jan 10:53:14 10:53:53 10° 89° (E) 10:54:33 437.250
BUGSAT 1 21 Jan 10:55:32 10:58:59 28° 69° (ENE) 11:02:27 437.445
Oscar 19 21 Jan 11:11:39 11:14:46 16° 60° (ENE) 11:17:54 437.125/150
ESTCUBE 1 21 Jan 11:16:34 11:21:00 52° 100° (E) 11:25:24 437.505/2401.250
Cosmos 2491 21 Jan 11:16:36 11:22:42 20° 61° (ENE) 11:28:47 435.465 / 435.565
PCSat 21 Jan 11:21:47 11:23:52 12° 258° (WSW) 11:25:56 145.827
QB50P1 21 Jan 11:23:29 11:27:26 41° 261° (W) 11:31:26 145.935-145.965
VELOX 1 21 Jan 11:24:08 11:27:35 22° 94° (E) 11:31:00 145.980
POLYITAN 1 21 Jan 11:28:05 11:31:58 36° 262° (W) 11:35:52 437.675
QB50P2 21 Jan 11:29:28 11:33:16 33° 263° (W) 11:37:07 145.880/145.840
Gurwin Techsat 1B 21 Jan 11:34:17 11:37:05 15° 58° (ENE) 11:39:54 435.225
